Regional Weather Roundup
Issued by NWS Grand Forks, ND

Home | Current Version | Previous Version | Text Only | Print | Product List | Glossary On
Versions: 1 2 3 4 5 6 7 8 9 10 11 12 13 14 15 16 17 18 19 20 21 22 23 24 25 26 27 28 29 30 31 32 33 34 35 36 37 38 39 40 41 42 43 44 45 46 47 48 49 50
000
ASUS43 KFGF 250231
RWRFGF
PRAIRIE TO PINES  WEATHER ROUNDUP
NATIONAL WEATHER SERVICE EASTERN NORTH DAKOTA/GRAND FORKS ND
900 PM CDT SAT SEP 24 2016

 **SATELLITE DATA USED TO AUGMENT SKY COVER AT AUTOMATED STATIONS**
 *****  WEATHER ACROSS EASTERN NORTH DAKOTA  *****

CITY           SKY/WX    TMP DP  RH WIND       PRES   REMARKS
GRAND FORKS    LGT RAIN  68  65  90 S13       29.76F
GRAND FRKS AFB CLOUDY    68  66  94 SE13      29.77S
DEVILS LAKE    CLEAR     67  65  93 SE8       29.74S
FARGO          CLOUDY    70  66  87 S12       29.79S
WAHPETON ARPT  CLOUDY    68  63  83 S15       29.84R
$$

 ***** WEATHER ACROSS CENTRAL AND WESTERN NORTH DAKOTA  *****

CITY           SKY/WX    TMP DP  RH WIND       PRES   REMARKS
BISMARCK       MOCLDY    62  48  60 CALM      29.74R
MINOT          MOCLDY    62  60  93 W15       29.73R
JAMESTOWN      CLEAR     66  57  72 S9        29.76R
MINOT AFB      CLOUDY    59  57  94 NW17      29.73R
GARRISON         N/A     57  52  83 SW5       29.72R
WILLISTON      LGT RAIN  53  49  86 N28G37    29.83R
DICKINSON      CLOUDY    55  54  96 NW15      29.73R
HETTINGER      CLOUDY    53  49  86 SW10      29.74F
$$

 *****  OTHER AIRPORT OBSERVATIONS IN OUR AREA  *****

CITY           SKY/WX    TMP DP  RH WIND       PRES   REMARKS
WALHALLA       FAIR      68  64  88 SE14G24   29.74F
GRAFTON AIRPOR CLOUDY    68  66  94 SE20      29.77F
VALLEY CITY AR MOCLDY    70  70 100 S13       29.79S
CANDO          FAIR      66  66 100 SE10      29.74F
CAVALIER APRT  CLOUDY    68  64  88 SE13G22   29.75F
GWINNER        FAIR      70  66  88 S13       29.81S
SHEYENNE NWR     N/A     70  67  91 SE12      29.95
ROLLA          FAIR      66  66 100 S13       29.73S
 ***** THE ABOVE OBSERVATIONS ARE NON NWS ARE NOT QUALITY
       CONTROLLED AND MAY MIS-REPORT RAIN FOR SNOW...
$$

  *****  WEATHER ACROSS NORTHERN MINNESOTA  *****

CITY           SKY/WX    TMP DP  RH WIND       PRES   REMARKS
FLAG ISLAND    CLOUDY    63  61  94 SE13      29.89F
WARROAD        CLOUDY    64  61  88 SE13G25   29.88F
ROSEAU         CLOUDY    64  61  88 SE15      29.86F
HALLOCK        DRIZZLE   70  64  83 SE16G22   29.77F
THF RVR FALLS  LGT RAIN  66  63  90 SE18      29.86S
BAUDETTE       CLOUDY    63  60  90 SE12      29.93F
WASKISH        CLOUDY    64  61  88 SE15G21   29.92F
CROOKSTON      CLOUDY    66  64  94 SE15      29.80F
STEPHEN NDAWN    N/A     70  64  83 SE13        N/A
GREENBUSH NDAW   N/A     64  63  94 SE14        N/A
$$
  *****  WEATHER ACROSS CENTRAL AND WEST MINNESOTA  *****

CITY           SKY/WX    TMP DP  RH WIND       PRES   REMARKS
FOSSTON        CLOUDY    64  63  94 E8        29.85F FOG
BEMIDJI        LGT RAIN  64  62  93 SE12G17   29.90F
PARK RAPIDS    CLOUDY    66  62  87 SE17      29.90F
ELBOW LAKE     FAIR      66  65  97 E14       29.87S
WADENA         CLOUDY    64  63  94 SE10      29.89F FOG
DETROIT LAKES  CLOUDY    66  64  94 SE14G20   29.86F
MOORHEAD       CLOUDY    68  66  94 SE13      29.80F
FERGUS FALLS   CLOUDY    68  68 100 SE16G23   29.86S
MORRIS MN      PTCLDY    66  64  94 SE10      29.87F
STAPLES        CLOUDY    64  63  94 SE9       29.91F
$$
  *****  WEATHER ELSEWHERE ACROSS MINNESOTA  *****

CITY           SKY/WX    TMP DP  RH WIND       PRES   REMARKS
DULUTH         CLOUDY    62  59  90 E15       30.05F
INTRNTL FALLS  CLOUDY    63  58  83 SE14      29.99S
ELY            CLOUDY    61  54  77 SE10G20   30.06F
CLOQUET        CLOUDY    61  57  88 E7        30.05S
WHEATON        CLOUDY    68  66  94 SE15      29.87R
BRAINERD       CLOUDY    66  62  87 SE14G23   29.97S
HIBBING        CLOUDY    60  58  92 SE10      30.02F
ALEXANDRIA     CLOUDY    66  65  96 SE9       29.91F
SAINT CLOUD    LGT RAIN  66  66 100 SE8       29.94F
MINNEAPOLIS    CLOUDY    68  62  81 SE15      29.99F
$$

  *****  WEATHER ACROSS SOUTH DAKOTA  *****

CITY           SKY/WX    TMP DP  RH WIND       PRES   REMARKS
SIOUX FALLS    CLOUDY    71  68  90 S10       29.91R
BROOKINGS      CLOUDY    68  66  93 S7          N/A
WATERTOWN      MOCLDY    68  66  93 S10       29.88R
HURON          CLEAR     67  52  58 S8        29.86R
SISSETON         N/A     69  67  93 S13       29.84R
ABERDEEN       CLEAR     63  47  55 S9        29.82R
MITCHELL       CLEAR     67  56  67 S6        29.90R
PIERRE         CLEAR     59  42  53 W16G28    29.89R
MOBRIDGE       CLEAR     60  46  59 SW13G29   29.80R
RAPID CITY     MOCLDY    53  37  54 W23G30    30.00R
$$

  *****  SOME WEATHER IN NEARBY STATES *****

CITY           SKY/WX    TMP DP  RH WIND       PRES   REMARKS
GLASGOW MT     CLOUDY    53  47  79 W14       30.02R
GREAT FALLS MT CLOUDY    51  39  63 NW5       30.24R
CHEYENNE WY    CLOUDY    48  35  60 MISG      30.22R
SCOTTSBLUFF NE PTCLDY    52  41  66 NW10      30.15R
OMAHA NE       LGT RAIN  71  67  87 SE10      29.94R
DES MOINES IA  TSTM      72  66  81 NW20G29   30.02R
DAVENPORT IA   CLEAR     72  67  84 E8        30.06R
CHICAGO IL     CLEAR     68  63  84 NE5       30.13R
EAU CLAIRE WI  CLOUDY    65  60  84 SE13      30.09F
LA CROSSE WI   PTCLDY    68  63  84 SE6       30.07F
$$

  *****  SOME NATIONAL WEATHER *****

CITY           SKY/WX    TMP DP  RH WIND       PRES   REMARKS
LA GUARDIA NY  PTCLDY    66  45  46 N7        30.14R
RALEIGH NC     PTCLDY    74  70  87 CALM      30.05R
ATLANTA GA     PTCLDY    81  66  60 CALM      30.06R
NEW ORLEANS LA CLEAR     80  74  81 S5        30.00S
OKLAHOMA CITY  CLOUDY    71  32  23 NE6       29.96F
ALBUQUERQUE NM PTCLDY    64  31  28 NW15G26   30.13R
SALT LAKE CITY PTCLDY    57  47  69 CALM      30.31R
LOS ANGELES CA PTCLDY    73  54  51 SW7       29.95S
BOISE ID       CLEAR     62  30  29 NW5       30.29S
SEATTLE WA     CLOUDY    63  46  54 CALM      30.35R
$$

*** WEATHER ACROSS MANITOBA...SASKATCHEWAN AND ONTARIO ***
                ***ONTARIO***

CITY           SKY/WX    TMP DP  RH WIND       PRES   REMARKS
GERALDTON      MOCLDY    55  48  76 S6        30.21R
THUNDER BAY    CLOUDY    59  54  82 E8        30.17F
SIOUX LOOKOUT  CLOUDY    59  54  82 SE8       30.04F
TORONTO        CLEAR     57  41  54 N9        30.24R
BIG TROUT LK   CLEAR     54  41  62 SE7       30.08F
PICKLE LAKE    LGT RAIN  54  50  87 SE13G18   30.11S
DRYDEN         CLOUDY    63  55  77 SE12      30.01F
KENORA         CLOUDY    63  61  94 S15G23    29.94S
$$
                *** MANITOBA***

CITY           SKY/WX    TMP DP  RH WIND       PRES   REMARKS
BRANDON        MOCLDY    66  66 100 SE9       29.68F FOG
DAUPHIN        LGT RAIN  57  55  94 NW12G17   29.74R FOG
ISLAND LAKE    CLOUDY    59  52  77 SE16G23   29.91S
PILOT MOUND      N/A     68  66  94 S16         N/A
THE PAS        LGT RAIN  52  50  93 W8        29.82S FOG
THOMPSON       RAIN      50  48  93 SE5       29.86F
WINNIPEG       CLOUDY    66  63  88 SE20G28   29.77S
LYNN LAKE      LGT RAIN  48  46  93 SE2       29.83F FOG
CHURCHILL      CLOUDY    52  41  66 SE13      30.03F
GILLAM         LGT RAIN  52  48  87 E6        29.97F
$$
                ***SASKATCHEWAN***

CITY           SKY/WX    TMP DP  RH WIND       PRES   REMARKS
ESTEVAN        CLOUDY    54  52  94 NW21G28   29.80R
KINDERSLEY     PTCLDY    46  34  61 NW6       30.08R
LLOYDMINSTER   CLEAR     48  34  57 NW8       30.05R
PRINCE ALBERT  MOCLDY    48  46  93 W6        29.92R
REGINA         CLOUDY    50  48  93 NW16      29.92R
YORKTON        CLOUDY    52  50  93 NW15      29.81F
N. BATTLEFORD  CLEAR     52  37  58 NW13      30.03R
LA RONGE       MOCLDY    50  48  93 SW2       29.89R
SASKATOON      MOCLDY    52  45  76 W10       29.99R
SWIFT CURRENT  CLEAR     48  41  76 NW10      30.05R
$$
NOTE: THESE ARE AUTOMATED STATIONS WITH LIMITED QUALITY CONTROL
      "FAIR" INDICATES FEW OR NO CLOUDS BELOW 12,000 FEET WITH NO
      SIGNIFICANT WEATHER AND/OR OBSTRUCTIONS TO VISIBILITY.
      SKY/WX - SKY CONDITION AND SIGNIFICANT WEATHER.
      TMP - AIR TEMPERATURE.    DP   - DEWPOINT TEMPERATURE.
      RH  - RELATIVE HUMIDITY.  PRES - PRESSURE.
      HX  - HEAT INDEX.         WCI  - WIND CHILL INDEX.
$




USA.gov is the U.S. government's official web portal to all federal, state and local government web resources and services.